STARLINK-5364, 55491

Orbit data source: Space-Track

STARLINK-5364, 55491 is a payload satellite owned by SpaceX/Seattle (US) in LEO that was launched on Thu, 02 Feb 2023 UTC via an FALCON 9 launch vehicle from the Air Force Eastern Test Range (AFETR). Payload-class satellites include a variety of spacecraft equipped with specific instruments for various scientific and technological missions. These include communications satellites like Starlink; space stations such as the ISS; scientific satellites like the Hubble; Earth observation satellites from companies like Planet Labs, Umbra, and HawkEye 360; GPS; miniature CubeSats for education and research; and military/defense satellites.

Loading next visibility...
Identifier
55491, 2023-015AU
Orbit
LEO
Country
Flag of USUS
Related business
Manufacturer
SpaceX/Seattle
Mission
Operational Commercial Communications
Bus & Motor
STARLINK, Unknown motor
Mass
305 kg wet, ~290 kg dry
Launch date (UTC)
2023-02-02 (3 years ago)
Launch vehicle
FALCON 9
Launch site
Air Force Eastern Test Range (AFETR)
Object type
Payload
Rocket body
Debris
Shape & HBR
Box + 1 Pan, 10.1 m
Radar Cross Section
13.562 m², Large (>1 m²)

Expand to show TLE details & history
Last TLE update: 19 hours ago

TLE from 19 hours ago
0 STARLINK-5364
1 55491U 23015AU  26035.29937498  .00000226  00000-0  31826-4 0  9996
2 55491  43.0009 134.1970 0001200 276.8293  83.2413 15.02534212165881
Epoch: 2026-02-04T07:11Z
TLE epoch observation values (Epoch: 2026-02-04T07:11:05.998Z)
Latitude
0.00001°
Longitude
-108.04593°
Altitude
558.765 km
Speed
7.584 km/s
True Right ascension
08h 56m 47s
True Declination
0° 00' 00"
Sunlit
Object was in full shadow at epoch
Visualization orbit readout
Latitude
Unknown
Longitude
Unknown
Altitude
Unknown
Speed
Unknown
Apparent Right ascension
Unknown
Apparent Declination
Unknown
Sunlit
N/A
Visualization observer readout
Local Sidereal Time
04:39:22
Azimuth
Unknown
Elevation
Unknown
Doppler factor
Unknown
Orbital elements
Apogee altitude
561.842 km
Perigee altitude
560.176 km
Semi-major axis
6,939.146 km
Eccentricity
0.00012
Inclination
43.0009°
RAAN
134.197°
Arg. of periapsis
276.8293°
True anomaly
83.25496°
Mean anomaly
83.2413°
Eccentric anomaly
83.24813°
Mean motion
3.75478 °/min
Orbital period
95.88 mins
BSTAR
0.000031826
Loading maneuver chart data...
Computing Atmospheric mass density...
Loading historical data...
Loading historical data...
Loading historical data...
Loading historical data...
Loading historical data...
Loading historical data...
Loading historical data...

Documentation

Showing up to 5 results
|